This is the latest recevied weather packets stored in our database for station/object W0AKO. If no packets are shown the sender has not sent any weather packets the latest 1 day(s).
| Time | Temp. | Humidity | Pressure | Rain* | Wind** | Luminosity | Snow |
|---|---|---|---|---|---|---|---|
| 1778023886 | 22.78° C | 10% | 1009.5 hPa | 0 mm | 1.79 m/s, 261° | 379 W/m² | - |
| 1778023583 | 23.33° C | 10% | 1009.7 hPa | 0 mm | 4.47 m/s, 275° | 381 W/m² | - |
| 1778023281 | 23.33° C | 10% | 1009.4 hPa | 0 mm | 5.81 m/s, 225° | 396 W/m² | - |
| 1778022977 | 22.78° C | 10% | 1009.5 hPa | 0 mm | 4.47 m/s, 247° | 426 W/m² | - |
| 1778022676 | 23.33° C | 10% | 1009.5 hPa | 0 mm | 3.13 m/s, 237° | 424 W/m² | - |
| 1778022374 | 23.33° C | 10% | 1009.6 hPa | 0 mm | 4.92 m/s, 258° | 443 W/m² | - |
| 1778022070 | 23.33° C | 10% | 1009.6 hPa | 0 mm | 3.13 m/s, 273° | 496 W/m² | - |
| 1778021766 | 23.33° C | 10% | 1009.8 hPa | 0 mm | 3.13 m/s, 235° | 521 W/m² | - |
| 1778021462 | 23.33° C | 10% | 1009.7 hPa | 0 mm | 3.58 m/s, 269° | 514 W/m² | - |
| 1778021159 | 23.33° C | 10% | 1009.7 hPa | 0 mm | 4.02 m/s, 249° | 547 W/m² | - |
| 1778020857 | 23.33° C | 10% | 1009.7 hPa | 0 mm | 4.92 m/s, 273° | 529 W/m² | - |
| 1778020554 | 22.78° C | 10% | 1009.8 hPa | 0 mm | 2.24 m/s, 242° | 505 W/m² | - |
| 1778020250 | 22.78° C | 10% | 1010.1 hPa | 0 mm | 3.13 m/s, 289° | 480 W/m² | - |
| 1778019946 | 22.78° C | 10% | 1009.9 hPa | 0 mm | 4.47 m/s, 256° | 444 W/m² | - |
| 1778019643 | 22.78° C | 10% | 1010.1 hPa | 0 mm | 4.47 m/s, 187° | 450 W/m² | - |
| 1778019340 | 22.22° C | 10% | 1010.3 hPa | 0 mm | 4.47 m/s, 228° | 470 W/m² | - |
| 1778019036 | 22.22° C | 10% | 1010.5 hPa | 0 mm | 2.24 m/s, 225° | 495 W/m² | - |
| 1778018733 | 22.78° C | 10% | 1010.2 hPa | 0 mm | 3.58 m/s, 214° | 521 W/m² | - |
| 1778018432 | 22.78° C | 10% | 1010.6 hPa | 0 mm | 3.13 m/s, 325° | 503 W/m² | - |
| 1778018130 | 22.78° C | 10% | 1010.7 hPa | 0 mm | 3.13 m/s, 176° | 492 W/m² | - |
| 1778017827 | 22.78° C | 10% | 1010.7 hPa | 0 mm | 2.68 m/s, 184° | 541 W/m² | - |
| 1778017525 | 22.22° C | 10% | 1010.8 hPa | 0 mm | 2.68 m/s, 248° | 572 W/m² | - |
| 1778017221 | 22.78° C | 10% | 1010.8 hPa | 0 mm | 4.92 m/s, 255° | 562 W/m² | - |
| 1778016919 | 22.22° C | 10% | 1010.6 hPa | 0 mm | 2.68 m/s, 245° | 609 W/m² | - |
| 1778016615 | 22.78° C | 10% | 1010.7 hPa | 0 mm | 2.24 m/s, 230° | 641 W/m² | - |
* Rain latest hour (hover to see other rain measurements)
** Current wind speed in m/s (hover to see current wind gust speed)